CW8504 Weather Reports


time (UTC)temp
F
wind
direction
speed
knots
gust
knots
rain 1hr
in
rain 24hr
in
rain mn
in
humidity
%
barometer
mb
20260831094404 35 233 0.0 0.0 0.00 0.00 0.00 68 1021.9
20260831093904 35 233 0.0 0.0 0.00 0.00 0.00 68 1021.9
20260831093406 35 233 0.0 0.0 0.00 0.00 0.00 68 1021.9
20260831092404 36 233 0.0 0.0 0.00 0.00 0.00 67 1021.9
20260831091404 36 233 0.0 0.0 0.00 0.00 0.00 67 1021.8
20260831090904 36 233 0.0 0.0 0.00 0.00 0.00 67 1021.8
20260831090404 36 233 0.0 0.0 0.00 0.00 0.00 67 1022.0
20260831085404 37 233 0.0 0.0 0.00 0.00 0.00 67 1021.9
20260831084904 37 233 0.0 0.0 0.00 0.00 0.00 67 1021.9
20260831084404 37 233 0.0 0.0 0.00 0.00 0.00 67 1021.9
20260831083404 37 233 0.0 0.0 0.00 0.00 0.00 66 1021.9
20260831082904 37 233 0.0 0.0 0.00 0.00 0.00 66 1021.9
20260831082404 37 233 0.0 0.0 0.00 0.00 0.00 66 1021.9
20260831081904 37 233 0.0 0.0 0.00 0.00 0.00 66 1021.8
20260831080904 38 233 0.0 0.0 0.00 0.00 0.00 65 1021.9
20260831080404 38 233 0.0 0.0 0.00 0.00 0.00 65 1021.8
20260831075404 38 233 0.0 0.0 0.00 0.00 0.00 65 1021.8
20260831074904 38 233 0.0 0.0 0.00 0.00 0.00 65 1021.8
20260831074404 38 233 0.0 0.0 0.00 0.00 0.00 64 1021.8
20260831073904 39 233 0.0 0.0 0.00 0.00 0.00 64 1021.9
20260831073404 39 233 0.0 0.0 0.00 0.00 0.00 64 1021.9
20260831072904 39 233 0.0 0.0 0.00 0.00 0.00 64 1021.8
20260831071404 39 233 0.0 0.0 0.00 0.00 0.00 62 1021.8
20260831070404 40 233 0.0 0.0 0.00 0.00 0.00 62 1021.6
20260831065904 40 233 0.0 0.0 0.00 0.00 0.00 62 1021.6
20260831064904 40 233 0.0 0.0 0.00 0.00 0.00 61 1021.5
20260831063904 41 233 0.0 0.0 0.00 0.00 0.00 61 1021.5
20260831063404 41 233 0.0 0.0 0.00 0.00 0.00 61 1021.4
20260831062904 41 233 0.0 0.0 0.00 0.00 0.00 61 1021.4
20260831061904 41 233 0.0 0.0 0.00 0.00 0.00 60 1021.3
20260831061404 41 233 0.0 0.0 0.00 0.00 0.00 60 1021.3
20260831060904 41 233 0.0 0.0 0.00 0.00 0.00 60 1021.3
20260831060404 41 233 0.0 0.0 0.00 0.00 0.00 59 1021.3
20260831055904 42 233 0.0 0.0 0.00 0.00 0.00 59 1021.3
20260831054904 42 233 0.0 0.0 0.00 0.00 0.00 59 1021.2
20260831054404 42 233 0.0 0.0 0.00 0.00 0.00 58 1021.2
20260831053404 43 233 0.0 0.0 0.00 0.00 0.00 58 1021.1
20260831052904 43 233 0.0 0.0 0.00 0.00 0.00 58 1021.1
20260831052404 43 233 0.0 0.0 0.00 0.00 0.00 58 1021.2
20260831051904 44 233 0.0 0.0 0.00 0.00 0.00 58 1021.0
20260831050904 44 233 0.0 0.0 0.00 0.00 0.00 57 1021.1
20260831050404 44 233 0.0 0.0 0.00 0.00 0.00 57 1021.0
20260831045904 45 233 0.0 0.0 0.00 0.00 0.00 57 1020.9
20260831045404 45 233 0.0 0.0 0.00 0.00 0.00 56 1020.9
20260831044904 45 233 0.0 0.0 0.00 0.00 0.00 56 1020.9
20260831044404 45 233 0.0 0.0 0.00 0.00 0.00 55 1020.9
20260831043904 45 233 0.0 0.0 0.00 0.00 0.00 53 1020.8
20260831042405 46 234 0.0 0.0 0.00 0.00 0.00 54 1020.7
20260831041904 46 234 0.0 0.0 0.00 0.00 0.00 54 1020.7
20260831041404 47 234 0.0 0.0 0.00 0.00 0.00 53 1020.7
20260831040906 47 234 0.0 0.0 0.00 0.00 0.00 53 1020.6
20260831040404 47 234 0.0 0.0 0.00 0.00 0.00 53 1020.5
20260831035904 48 234 0.0 0.0 0.00 0.00 0.00 52 1020.4
20260831035404 48 234 0.0 0.0 0.00 0.00 0.00 51 1020.4
20260831034404 49 234 0.0 0.0 0.00 0.00 0.00 49 1020.4
20260831033904 49 234 0.0 0.0 0.00 0.00 0.00 49 1020.3
20260831033404 50 234 0.0 0.0 0.00 0.00 0.00 48 1020.3
20260831032904 50 234 0.0 0.0 0.00 0.00 0.00 47 1020.3
20260831032404 50 234 0.0 0.0 0.00 0.00 0.00 48 1020.1
20260831031904 51 234 0.0 0.0 0.00 0.00 0.00 47 1020.0
20260831031404 52 234 0.0 0.0 0.00 0.01 0.00 47 1020.0
20260831030904 52 234 0.0 0.0 0.00 0.01 0.00 45 1020.0
20260831030404 52 234 0.0 0.0 0.00 0.01 0.00 44 1019.9
20260831025904 53 234 0.0 0.0 0.00 0.01 0.00 44 1019.8
20260831024904 55 234 0.0 0.0 0.00 0.01 0.00 42 1019.7
20260831024404 56 234 0.0 0.0 0.00 0.01 0.00 39 1019.7
20260831023904 56 234 0.0 0.0 0.00 0.01 0.00 40 1019.6
20260831023404 57 234 0.0 0.0 0.00 0.01 0.00 37 1019.5
20260831022904 58 234 0.0 0.0 0.00 0.01 0.00 36 1019.5
20260831021904 59 234 0.0 0.0 0.00 0.01 0.00 31 1019.3
20260831021404 60 234 0.0 0.0 0.00 0.01 0.00 33 1019.1
20260831020904 61 234 0.0 0.0 0.00 0.01 0.00 30 1019.0
20260831020404 61 234 0.0 0.0 0.00 0.01 0.00 29 1018.9
20260831015904 62 234 0.0 0.0 0.00 0.01 0.00 27 1018.9
20260831015404 63 234 0.0 0.0 0.00 0.01 0.00 24 1018.9
20260831014904 64 234 0.0 0.0 0.00 0.02 0.00 26 1018.8
20260831013404 65 234 0.0 0.0 0.00 0.02 0.00 17 1018.6
20260831012904 66 234 0.0 0.0 0.00 0.02 0.00 17 1018.7
20260831012404 66 234 0.0 2.6 0.00 0.02 0.00 15 1018.8
20260831011904 67 239 0.0 0.0 0.00 0.02 0.00 12 1018.8
20260831011404 67 239 0.0 0.0 0.00 0.02 0.00 12 1018.7
20260831010904 68 239 0.0 0.0 0.00 0.02 0.00 11 1018.7
20260831010404 68 238 0.0 0.0 0.00 0.02 0.00 10 1018.7
20260831005904 68 214 0.0 0.0 0.00 0.02 0.00 8 1018.7
20260831005404 68 213 1.7 5.2 0.00 0.02 0.00 10 1018.7
20260831004904 69 229 2.6 7.8 0.00 0.02 0.00 10 1018.6
20260831004404 69 224 2.6 10.4 0.00 0.02 0.00 9 1018.6
20260831003404 70 209 0.0 2.6 0.00 0.02 0.00 8 1018.5
20260831002904 70 223 0.0 10.4 0.00 0.02 0.00 8 1018.6
20260831002404 70 201 1.7 15.6 0.00 0.02 0.00 9 1018.5
20260831001404 71 221 0.0 1.7 0.00 0.02 0.00 8 1018.7
20260831000904 71 224 0.0 8.7 0.00 0.02 0.00 8 1018.8
20260831000404 72 208 0.9 8.7 0.00 0.02 0.00 8 1018.6
20260830235904 72 223 0.9 8.7 0.00 0.02 0.00 9 1018.7
20260830235404 72 226 0.0 7.0 0.00 0.02 0.00 10 1018.6
20260830234904 72 204 1.7 7.8 0.00 0.02 0.00 8 1018.6
20260830234404 72 239 0.9 7.0 0.00 0.02 0.00 9 1018.6
20260830233904 73 217 1.7 8.7 0.00 0.02 0.00 7 1018.6
20260830233404 73 222 0.9 4.3 0.00 0.02 0.00 8 1018.6
20260830232904 72 225 0.9 7.8 0.00 0.02 0.00 10 1018.5
20260830232404 72 212 0.0 1.7 0.00 0.02 0.00 9 1018.6
20260830231404 73 248 5.2 11.3 0.00 0.02 0.00 5 1018.6
20260830230904 72 223 0.9 7.0 0.00 0.02 0.00 8 1018.6
20260830230403 72 250 1.7 10.4 0.00 0.02 0.00 6 1018.7
20260830225904 72 80 0.9 1.7 0.00 0.02 0.00 4 1018.7
20260830225404 72 198 0.9 10.4 0.00 0.02 0.00 8 1018.8
20260830224904 72 219 4.3 10.4 0.00 0.02 0.00 7 1018.7
20260830224404 72 238 0.0 10.4 0.00 0.02 0.00 8 1018.7
20260830223904 72 208 1.7 8.7 0.00 0.02 0.00 7 1018.7
20260830223404 71 210 4.3 12.2 0.00 0.02 0.00 7 1018.7
20260830222904 71 201 3.5 11.3 0.00 0.02 0.00 8 1018.7
20260830222404 71 205 1.7 10.4 0.00 0.02 0.00 9 1018.7
20260830221904 71 203 4.3 12.2 0.00 0.02 0.00 10 1018.8
20260830221404 71 202 4.3 11.3 0.00 0.02 0.00 10 1018.8
20260830220404 71 221 6.1 13.0 0.00 0.02 0.00 8 1019.0
20260830215904 71 206 5.2 13.9 0.00 0.02 0.00 9 1019.0
20260830215404 71 210 1.7 8.7 0.00 0.02 0.00 12 1019.0
20260830214404 71 216 0.9 10.4 0.00 0.02 0.00 12 1019.0
20260830213904 70 209 3.5 10.4 0.00 0.02 0.00 9 1019.0
20260830213404 70 210 2.6 10.4 0.00 0.02 0.00 13 1019.1
20260830212904 70 249 9.6 18.2 0.00 0.02 0.00 10 1019.2
20260830212404 70 217 1.7 8.7 0.00 0.02 0.00 12 1019.2
20260830211904 70 201 2.6 10.4 0.00 0.02 0.00 12 1019.2
20260830211404 70 189 6.1 12.2 0.00 0.02 0.00 13 1019.3
20260830210904 70 222 3.5 12.2 0.00 0.02 0.00 13 1019.2
20260830210404 70 205 4.3 15.6 0.00 0.02 0.00 14 1019.2
20260830205904 70 208 5.2 13.0 0.00 0.02 0.00 14 1019.1
20260830205404 70 219 8.7 13.9 0.00 0.02 0.00 14 1019.2
20260830204904 70 214 7.8 13.9 0.00 0.02 0.00 13 1019.2
20260830203904 71 214 7.0 11.3 0.00 0.02 0.00 15 1019.1
20260830203404 71 209 5.2 10.4 0.00 0.02 0.00 17 1019.2
20260830202904 70 213 5.2 10.4 0.00 0.02 0.00 16 1019.1
20260830202404 70 217 6.1 13.0 0.00 0.02 0.00 16 1019.2
20260830201904 70 201 4.3 10.4 0.00 0.03 0.00 17 1019.1
20260830194904 70 232 0.9 6.1 0.00 0.03 0.00 20 1019.2
20260830194404 70 270 1.7 7.0 0.00 0.04 0.00 19 1019.3
20260830193904 70 230 0.9 5.2 0.00 0.04 0.00 21 1019.3
20260830193404 70 152 0.0 4.3 0.00 0.04 0.00 22 1019.2
20260830192904 70 227 1.7 7.0 0.00 0.04 0.00 21 1019.3
20260830192404 70 187 1.7 11.3 0.00 0.05 0.00 22 1019.2
20260830191904 70 186 3.5 10.4 0.00 0.05 0.00 20 1019.1
20260830190904 69 232 2.6 8.7 0.00 0.05 0.00 27 1019.2
20260830190404 69 196 1.7 7.8 0.00 0.06 0.00 25 1019.2
20260830185904 69 196 0.9 8.7 0.00 0.06 0.00 26 1019.1
20260830185404 68 217 0.9 7.8 0.00 0.06 0.00 29 1019.2
20260830184904 68 226 1.7 7.8 0.00 0.06 0.00 28 1019.2
20260830184404 67 215 1.7 7.0 0.00 0.06 0.00 34 1019.3
20260830183904 67 221 1.7 7.0 0.00 0.06 0.00 33 1019.3
20260830183404 67 226 1.7 10.4 0.00 0.06 0.00 32 1019.3
20260830182904 67 223 5.2 7.8 0.00 0.06 0.00 34 1019.3
20260830182404 67 217 0.0 2.6 0.00 0.06 0.00 34 1019.3
20260830181904 67 211 0.0 4.3 0.00 0.06 0.00 36 1019.3
20260830180904 67 224 1.7 7.0 0.00 0.06 0.00 36 1019.2
20260830180404 66 273 0.0 4.3 0.00 0.06 0.00 38 1019.2
20260830175904 66 228 3.5 10.4 0.00 0.06 0.00 36 1019.3
20260830175404 66 227 2.6 8.7 0.00 0.06 0.00 37 1019.3
20260830174904 66 201 0.0 0.0 0.00 0.06 0.00 42 1019.2
20260830174404 65 201 0.0 0.0 0.00 0.06 0.00 47 1019.2
20260830173904 65 201 0.0 0.0 0.00 0.06 0.00 47 1019.3
20260830173404 64 201 0.0 0.0 0.00 0.06 0.00 46 1019.3
20260830172904 64 201 0.0 0.0 0.00 0.06 0.00 48 1019.3
20260830172404 63 201 0.0 0.0 0.00 0.06 0.00 51 1019.4
20260830171404 63 201 0.0 0.0 0.00 0.06 0.00 53 1019.4
20260830170904 62 201 0.0 0.0 0.00 0.06 0.00 52 1019.4
20260830165404 61 201 0.0 0.0 0.00 0.06 0.00 61 1019.4
20260830164904 60 201 0.0 0.0 0.00 0.06 0.00 65 1019.5
20260830164404 60 201 0.0 0.0 0.00 0.06 0.00 68 1019.4
20260830163904 59 201 0.0 0.0 0.00 0.06 0.00 71 1019.4
20260830163404 58 201 0.0 0.0 0.00 0.06 0.00 75 1019.4
20260830162904 57 201 0.0 0.0 0.00 0.06 0.00 77 1019.3
20260830162404 57 201 0.0 0.0 0.00 0.06 0.00 78 1019.3
20260830161404 55 201 0.0 0.0 0.00 0.06 0.00 79 1019.3
20260830160404 54 201 0.0 0.0 0.00 0.06 0.00 80 1019.3
20260830155904 53 201 0.0 0.0 0.00 0.06 0.00 80 1019.3
20260830155404 53 201 0.0 0.0 0.00 0.06 0.00 80 1019.3
20260830154904 52 201 0.0 0.0 0.00 0.06 0.00 80 1019.3
20260830154404 52 201 0.0 0.0 0.00 0.06 0.00 80 1019.4
20260830152904 51 201 0.0 0.0 0.00 0.06 0.00 80 1019.4
20260830152404 51 201 0.0 0.0 0.00 0.06 0.00 80 1019.2
20260830151904 51 201 0.0 0.0 0.00 0.06 0.00 80 1019.3
20260830151404 51 201 0.0 0.0 0.00 0.06 0.00 80 1019.2
20260830150904 50 201 0.0 0.0 0.00 0.06 0.00 80 1019.1
20260830145904 50 201 0.0 0.0 0.00 0.06 0.00 80 1019.0
20260830145405 50 201 0.0 0.0 0.00 0.06 0.00 80 1019.0
20260830144904 50 201 0.0 0.0 0.00 0.06 0.00 80 1019.0
20260830144404 50 201 0.0 0.0 0.00 0.06 0.00 80 1019.1
20260830143904 49 201 0.0 0.0 0.00 0.06 0.00 80 1019.1
20260830143404 49 201 0.0 0.0 0.00 0.06 0.00 80 1019.2
20260830142904 49 201 0.0 0.0 0.00 0.06 0.00 80 1019.3
20260830142403 49 201 0.0 0.0 0.00 0.06 0.00 80 1019.2
20260830141904 49 201 0.0 0.0 0.00 0.06 0.00 79 1019.0
20260830141404 49 201 0.0 0.0 0.00 0.06 0.00 79 1018.8
20260830140904 49 201 2.6 5.2 0.00 0.06 0.00 79 1018.7
20260830140404 49 201 0.0 0.0 0.00 0.06 0.00 79 1018.6
20260830135904 49 201 0.0 0.0 0.00 0.06 0.00 79 1018.8
20260830135404 49 201 0.0 0.0 0.00 0.06 0.00 79 1018.9
20260830134404 49 201 0.0 0.0 0.00 0.06 0.00 79 1019.0
20260830133903 49 201 0.0 0.0 0.00 0.06 0.00 79 1018.9
20260830132404 48 201 0.0 0.0 0.00 0.06 0.00 79 1018.8
20260830131404 48 201 0.0 0.0 0.00 0.06 0.00 78 1018.8
20260830130904 48 201 0.0 0.0 0.00 0.06 0.00 78 1018.8
20260830130404 48 201 0.0 0.0 0.00 0.06 0.00 78 1018.8
20260830125404 48 201 0.0 0.0 0.00 0.06 0.00 78 1018.8
20260830124904 48 201 0.0 0.0 0.00 0.06 0.00 78 1018.8
20260830124404 47 201 0.0 0.0 0.00 0.06 0.00 78 1018.7
20260830123904 47 201 0.0 0.0 0.00 0.06 0.00 78 1018.7
20260830123404 47 201 0.0 0.0 0.00 0.06 0.00 77 1018.8
20260830122904 48 201 0.0 0.0 0.00 0.06 0.00 77 1018.8
20260830122404 48 201 0.0 0.0 0.00 0.06 0.00 77 1018.7
20260830121904 48 201 0.0 0.0 0.00 0.06 0.00 77 1018.6
20260830121404 48 201 0.0 0.0 0.00 0.06 0.00 77 1018.7
20260830120904 48 201 0.0 0.0 0.00 0.06 0.00 77 1018.7
20260830120404 48 201 0.0 0.0 0.00 0.06 0.00 77 1018.7
20260830115404 48 201 0.0 0.0 0.00 0.06 0.00 77 1018.8
20260830114904 48 201 0.0 0.0 0.00 0.06 0.00 77 1018.8
20260830114404 48 201 0.0 0.0 0.00 0.06 0.00 77 1018.7
20260830113904 48 201 0.0 0.0 0.00 0.06 0.00 77 1018.9
20260830113404 48 201 0.0 0.0 0.00 0.06 0.00 77 1018.9
20260830112904 48 201 0.0 0.0 0.00 0.06 0.00 77 1018.9
20260830112404 48 201 0.0 0.0 0.00 0.06 0.00 77 1018.9
20260830111904 48 201 0.0 0.0 0.00 0.06 0.00 76 1018.9
20260830111404 49 201 0.0 0.0 0.00 0.06 0.00 76 1018.8
20260830110904 49 201 0.0 0.0 0.00 0.06 0.00 76 1018.7
20260830105904 49 201 0.0 0.0 0.00 0.06 0.00 76 1018.8
20260830104904 49 201 0.0 0.0 0.00 0.07 0.00 76 1018.7
20260830104404 49 201 0.0 0.0 0.00 0.07 0.00 76 1018.7
20260830103904 49 201 0.0 0.0 0.00 0.07 0.00 76 1018.7
20260830103404 49 201 0.0 0.0 0.00 0.07 0.00 76 1018.7
20260830102904 49 201 0.0 0.0 0.00 0.07 0.00 75 1018.7
20260830102404 49 201 0.0 0.0 0.00 0.07 0.00 75 1018.6
20260830101904 50 201 0.0 0.0 0.00 0.07 0.00 75 1018.6
20260830100904 50 201 0.0 0.0 0.00 0.07 0.00 74 1018.5
20260830100404 50 201 0.0 0.0 0.00 0.08 0.00 74 1018.5
20260830095904 50 201 0.0 0.0 0.00 0.08 0.00 74 1018.5